{"data":{"norad_id":69707,"epoch":"2026-09-19T08:25:22.810944Z","epoch_age_seconds":120940,"freshness":"FRESH","line1":"1 69707U 26147D   26262.35095846  .00011622  00000+0  36168-3 0  9995","line2":"2 69707  97.2821 298.6672 0002210 102.3358 257.8132 15.33451859 14059","mean_motion":15.33451859,"eccentricity":0.000221,"inclination_deg":97.2821,"raan_deg":298.6672,"arg_perigee_deg":102.3358,"mean_anomaly_deg":257.8132,"bstar":0.00036168,"rev_number":1405,"period_min":93.905784622352,"perigee_km":464.01031818741,"apogee_km":467.03521580442,"semimajor_km":6843.6597669959,"source":"CELESTRAK","updated_at":"2026-09-20T09:00:44.257854Z"}}